TimeAKST,TemperatureF,Dew PointF,Humidity,Sea Level PressureIn,VisibilityMPH,Wind Direction,Wind SpeedMPH,Gust SpeedMPH,PrecipitationIn,Events,Conditions,WindDirDegrees,DateUTC
12:07 AM,24.8,24.8,100,29.05,2.5,Calm,Calm,-,0.00,Snow,Light Snow,0,2011-11-24 09:07:00
12:17 AM,24.8,23.0,93,29.05,3.0,Calm,Calm,-,0.00,Snow,Light Snow,0,2011-11-24 09:17:00
12:30 AM,24.8,21.2,86,29.04,2.5,NNE,5.8,-,0.01,Snow,Light Snow,30,2011-11-24 09:30:00
12:44 AM,24.8,21.2,86,29.05,1.8,NE,3.5,-,0.01,Snow,Light Snow,40,2011-11-24 09:44:00
12:53 AM,24.1,21.0,88,29.05,2.0,ENE,3.5,-,0.01,Snow,Light Snow,60,2011-11-24 09:53:00
1:02 AM,24.8,21.2,86,29.05,5.0,Calm,Calm,-,0.00,Snow,Light Snow,0,2011-11-24 10:02:00
1:09 AM,24.8,21.2,86,29.05,7.0,Calm,Calm,-,0.00,Snow,Light Snow,0,2011-11-24 10:09:00
1:53 AM,21.9,19.9,92,29.05,10.0,Calm,Calm,-,0.00,,Mostly Cloudy,0,2011-11-24 10:53:00
3:53 AM,19.4,17.6,93,29.04,10.0,Calm,Calm,-,N/A,,Mostly Cloudy,0,2011-11-24 12:53:00
4:53 AM,21.9,18.0,85,29.06,10.0,North,3.5,-,N/A,,Overcast,350,2011-11-24 13:53:00
5:53 AM,23.0,17.1,78,29.06,10.0,Calm,Calm,-,N/A,,Clear,0,2011-11-24 14:53:00
6:53 AM,24.1,14.0,65,29.06,10.0,Calm,Calm,-,N/A,,Mostly Cloudy,0,2011-11-24 15:53:00
7:53 AM,24.1,15.1,69,29.06,10.0,Calm,Calm,-,N/A,,Overcast,0,2011-11-24 16:53:00
8:53 AM,26.1,12.9,58,29.07,10.0,NNE,9.2,-,N/A,,Overcast,30,2011-11-24 17:53:00
9:53 AM,25.0,16.0,69,29.10,9.0,SSE,3.5,-,0.00,Snow,Light Snow,160,2011-11-24 18:53:00
10:09 AM,24.8,17.6,74,29.10,1.8,Calm,Calm,-,0.00,Snow,Light Snow,0,2011-11-24 19:09:00
10:14 AM,24.8,17.6,74,29.10,2.0,Calm,Calm,-,0.00,Snow,Light Snow,0,2011-11-24 19:14:00
10:53 AM,24.1,19.0,81,29.12,2.5,Calm,Calm,-,0.00,Snow,Light Snow,0,2011-11-24 19:53:00
11:20 AM,24.8,19.4,80,29.12,3.0,Calm,Calm,-,0.00,Snow,Light Snow,0,2011-11-24 20:20:00
11:38 AM,24.8,19.4,80,29.13,2.0,Variable,4.6,-,0.00,Snow,Light Snow,0,2011-11-24 20:38:00
11:53 AM,25.0,18.0,75,29.13,6.0,NW,4.6,-,0.00,Snow,Light Snow,320,2011-11-24 20:53:00
12:02 PM,24.8,19.4,80,29.13,8.0,Variable,3.5,-,0.00,,Overcast,0,2011-11-24 21:02:00
12:53 PM,25.0,17.1,72,29.14,10.0,Calm,Calm,-,0.00,,Overcast,0,2011-11-24 21:53:00
1:53 PM,25.0,18.0,75,29.16,9.0,Calm,Calm,-,N/A,,Overcast,0,2011-11-24 22:53:00
2:53 PM,25.0,18.0,75,29.18,10.0,Calm,Calm,-,N/A,,Mostly Cloudy,0,2011-11-24 23:53:00
3:53 PM,21.9,17.1,82,29.20,10.0,Calm,Calm,-,N/A,,Clear,0,2011-11-25 00:53:00
4:53 PM,18.0,14.0,84,29.22,10.0,Calm,Calm,-,N/A,,Clear,0,2011-11-25 01:53:00
5:53 PM,18.0,12.9,81,29.24,10.0,Calm,Calm,-,N/A,,Clear,0,2011-11-25 02:53:00
6:53 PM,17.1,12.0,81,29.28,10.0,Calm,Calm,-,N/A,,Clear,0,2011-11-25 03:53:00
7:53 PM,12.9,9.0,84,29.31,10.0,Calm,Calm,-,N/A,,Clear,0,2011-11-25 04:53:00
8:53 PM,14.0,10.0,84,29.35,10.0,Calm,Calm,-,N/A,,Clear,0,2011-11-25 05:53:00
9:53 PM,12.0,9.0,88,29.40,10.0,Calm,Calm,-,N/A,,Clear,0,2011-11-25 06:53:00
10:53 PM,10.9,9.0,92,29.44,9.0,NNE,3.5,-,N/A,,Mostly Cloudy,20,2011-11-25 07:53:00
11:53 PM,12.0,8.1,84,29.50,6.0,NNE,3.5,-,N/A,,Scattered Clouds,30,2011-11-25 08:53:00